User: anonymous   Login
Location: Iola
(37.9240°N, 95.4000°W)
Time: 00:49:25
(UTC-06:00)
Language:

Meteor 2-10 Rocket - Orbit

View from above orbital plane
View from above orbital plane
View from above satellite
View from above satellite

Ground track
Ground track

The orbit data is extracted from the following two-line orbital elements,

1 14453U 83109B   16337.45860794  .00000030  00000-0  76926-5 0  9999
2 14453  81.1659 304.2026 0103869 272.9227  86.0068 14.24661766719518
Epoch (UTC): 02 December 2016 11:00:23
Eccentricity: 0.0103869
inclination: 81.1659°
perigee height: 735 km
apogee height: 884 km
right ascension of ascending node: 304.2026°
argument of perigee: 272.9227°
revolutions per day: 14.24661766
mean anomaly at epoch: 86.0068°
orbit number at epoch: 71951

The dashed part of the orbit path shows where the satellite is in the earth's shadow,  

DLR